Location: Pian di Sc�
(43.6333°N, 11.5500°E)
Time: 13:57:46
(UTC+00:00)

ATLAS 3B CENTAUR R/B - Pass Details

Date: 07 August 2020
Orbit: 221 x 4244 km, 28.1° (Epoch: 25 September)

Event Time Altitude Azimuth Distance (km) Brightness Sun altitude
Exits shadow 01:12:17 34° 186° (S) 2,777 4.3 -24.7°
Drops below altitude 10° 01:19:26 10° 125° (SE) 3,082 5.1 -24.1°
Sets 01:21:43 0° 114° (ESE) 3,641 5.6 -23.8°
